STARLINK-4190, 53001

Orbit data source: Space-Track

STARLINK-4190, 53001 is a payload satellite owned by SpaceX/Seattle (US) in LEO that was launched on Thu, 07 Jul 2022 UTC via an FALCON 9 launch vehicle from the Air Force Eastern Test Range (AFETR). Payload-class satellites include a variety of spacecraft equipped with specific instruments for various scientific and technological missions. These include communications satellites like Starlink; space stations such as the ISS; scientific satellites like the Hubble; Earth observation satellites from companies like Planet Labs, Umbra, and HawkEye 360; GPS; miniature CubeSats for education and research; and military/defense satellites.

Loading next visibility...
Identifier
53001, 2022-076R
Orbit
LEO
Country
Flag of USUS
Related business
Manufacturer
SpaceX/Seattle
Mission
Operational Commercial Communications
Bus & Motor
STARLINK, Unknown motor
Mass
297 kg wet, ~275 kg dry
Launch date (UTC)
2022-07-07 (3 years ago)
Launch vehicle
FALCON 9
Launch site
Air Force Eastern Test Range (AFETR)
Object type
Payload
Rocket body
Debris
Shape & HBR
Box + 1 Pan, 10.1 m
Radar Cross Section
13.562 m², Large (>1 m²)

Expand to show TLE details & history
Last TLE update: 17 hours ago

TLE from 17 hours ago
0 STARLINK-4190
1 53001U 22076R   25340.73617130 -.00000465  00000-0 -11113-4 0  9996
2 53001  53.2163 151.4007 0001301  90.8649 269.2492 15.08832948188818
Epoch: 2025-12-06T17:40Z
TLE epoch observation values (Epoch: 2025-12-06T17:40:05.200Z)
Latitude
-0.00003°
Longitude
170.61938°
Altitude
540.674 km
Speed
7.593 km/s
True Right ascension
10h 05m 36s
True Declination
0° 00' 00"
Sunlit
Object was in daylight at epoch
Visualization orbit readout
Latitude
Unknown
Longitude
Unknown
Altitude
Unknown
Speed
Unknown
Apparent Right ascension
Unknown
Apparent Declination
Unknown
Sunlit
N/A
Visualization observer readout
Local Sidereal Time
08:31:52
Azimuth
Unknown
Elevation
Unknown
Doppler factor
Unknown
Orbital elements
Apogee altitude
540.91 km
Perigee altitude
539.11 km
Semi-major axis
6,918.147 km
Eccentricity
0.00013
Inclination
53.2163°
RAAN
151.4007°
Arg. of periapsis
90.8649°
True anomaly
269.23429°
Mean anomaly
269.2492°
Eccentric anomaly
269.24175°
Mean motion
3.77189 °/min
Orbital period
95.44 mins
BSTAR
-0.000011113
Loading maneuver chart data...
Computing Atmospheric mass density...
Loading historical data...
Loading historical data...
Loading historical data...
Loading historical data...
Loading historical data...
Loading historical data...
Loading historical data...

Documentation

Showing up to 5 results
|